Weather History for Smyrna, TN

Change the Weather History Date:

Friday, October 12, 2012

  Actual Average Record
Temperature  
Mean Temperature 56 °F -  
Max Temperature 61 °F 69 °F 86 °F (2008)
Min Temperature 51 °F 50 °F 32 °F (2006)
Degree Days  
Heating Degree Days 9    
Growing Degree Days 6 (Base 50)    
Moisture  
Dew Point 55 °F    
Average Humidity 95    
Maximum Humidity 100    
Minimum Humidity 70    
Precipitation  
Precipitation 0.69 in - - ()
Sea Level Pressure  
Sea Level Pressure 30.28 in    
Wind  
Wind Speed 3 mph (NE)    
Max Wind Speed 10 mph    
Max Gust Speed -    
Visibility 4 miles    
Events Fog , Rain , Thunderstorm    
Averages and records for this station are not official NWS values.
T = Trace of Precipitation, MM = Missing Value Source: NWS Daily Summary

Daily Weather History Graph

Daily Weather History Graph

Search for Another Location

Airport:

Trip Planner

Search our weather history database for the weather conditions in past years. The results will help you decide how hot, cold, wet, or windy it might be!

Date:

Astronomy

Oct. 12, 2012 Rise Set
Actual Time 6:50 AM CDT 6:13 PM CDT
Civil Twilight 6:24 AM CDT 6:39 PM CDT
Nautical Twilight 5:55 AM CDT 7:09 PM CDT
Astronomical Twilight 5:25 AM CDT 7:38 PM CDT
Moon 3:38 AM CDT (10/12) 4:18 PM CDT (10/12)
Length of Visible Light 12h 14m
Length of Day
11h 22m
Waning Crescent, 10% of the Moon is Illuminated
Oct 12
Waning Crescent
Oct 15
New
Oct 21
First Quarter
Oct 29
Full
Nov 6
Last Quarter

Hourly Weather History & Observations

Time (CDT) Temp. Dew Point Humidity Pressure Visibility Wind Dir Wind Speed Gust Speed Precip Events Conditions
12:56 AM 59.9 °F 50.0 °F 70% 30.22 in 10.0 mi Calm Calm - N/A   Overcast
1:56 AM 59.9 °F 50.9 °F 72% 30.21 in 10.0 mi SE 3.5 mph - N/A   Overcast
2:56 AM 59.0 °F 52.9 °F 80% 30.20 in 10.0 mi SSE 3.5 mph - 0.00 in Rain Light Rain
3:14 AM 57.2 °F 55.4 °F 94% 30.22 in 7.0 mi NE 5.8 mph - 0.05 in Rain Heavy Rain
3:46 AM 57.2 °F 55.4 °F 94% 30.28 in 1.5 mi North 10.4 mph - 0.18 in Rain Heavy Rain
3:48 AM 55.4 °F 55.4 °F 100% 30.24 in 1.0 mi NNE 10.4 mph - 0.24 in Rain Heavy Rain
3:56 AM 55.9 °F 54.9 °F 96% 30.25 in 1.0 mi North 4.6 mph - 0.28 in Rain Heavy Rain
3:58 AM 55.4 °F 55.4 °F 100% 30.26 in 1.5 mi Calm Calm - 0.00 in Rain Heavy Rain
4:03 AM 55.4 °F 55.4 °F 100% 30.25 in 3.0 mi SSE 4.6 mph - 0.02 in Rain Rain
4:24 AM 55.4 °F 55.4 °F 100% 30.23 in 3.0 mi South 6.9 mph - 0.06 in Rain Heavy Rain
4:33 AM 55.4 °F 55.4 °F 100% 30.23 in 3.0 mi SSW 9.2 mph - 0.07 in Rain Rain
4:56 AM 54.9 °F 54.9 °F 100% 30.21 in 3.0 mi Variable 5.8 mph - 0.13 in Rain Heavy Rain
5:56 AM 55.9 °F 55.9 °F 100% 30.25 in 8.0 mi West 5.8 mph - 0.12 in Rain , Thunderstorm Light Thunderstorms and Rain
6:29 AM 55.4 °F 55.4 °F 100% 30.24 in 3.0 mi South 6.9 mph - 0.06 in Rain Rain
6:40 AM 57.2 °F 55.4 °F 94% 30.22 in 2.5 mi SSE 8.1 mph - 0.10 in Rain Rain
6:48 AM 57.2 °F 57.2 °F 100% 30.27 in 4.0 mi NW 5.8 mph - 0.12 in Rain Rain
6:56 AM 56.8 °F 56.8 °F 100% 30.26 in 3.0 mi NW 3.5 mph - 0.12 in Rain Rain
7:06 AM 57.2 °F 57.2 °F 100% 30.23 in 2.0 mi SSE 5.8 mph - 0.02 in Rain Rain
7:19 AM 57.2 °F 57.2 °F 100% 30.26 in 2.0 mi NNE 3.5 mph - 0.04 in Rain Rain
7:56 AM 57.9 °F 57.9 °F 100% 30.26 in 2.0 mi NE 8.1 mph - 0.04 in   Overcast
9:56 AM 57.9 °F 56.8 °F 96% 30.30 in 2.0 mi ENE 4.6 mph - N/A   Overcast
10:03 AM 57.2 °F 55.4 °F 94% 30.31 in 2.0 mi Calm Calm - N/A   Overcast
10:32 AM 59.0 °F 57.2 °F 94% 30.31 in 2.0 mi Calm Calm - N/A   Overcast
10:56 AM 61.0 °F 57.9 °F 90% 30.30 in 3.0 mi Calm Calm - N/A   Overcast
11:16 AM 60.8 °F 57.2 °F 88% 30.32 in 10.0 mi Calm Calm - N/A   Overcast
11:56 AM 61.0 °F 59.0 °F 93% 30.31 in 7.0 mi North 3.5 mph - N/A   Overcast
12:56 PM 61.0 °F 57.9 °F 90% 30.29 in 5.0 mi North 8.1 mph - N/A   Overcast
1:56 PM 59.9 °F 57.9 °F 93% 30.29 in 10.0 mi NNE 8.1 mph - N/A   Overcast
2:56 PM 59.9 °F 57.9 °F 93% 30.29 in 3.0 mi North 5.8 mph - N/A   Overcast
3:30 PM 60.8 °F 57.2 °F 88% 30.30 in 2.5 mi Calm Calm - N/A   Overcast
3:56 PM 59.9 °F 57.9 °F 93% 30.28 in 3.0 mi Calm Calm - N/A   Overcast
4:29 PM 60.8 °F 57.2 °F 88% 30.30 in 3.0 mi Calm Calm - N/A   Overcast
4:56 PM 61.0 °F 57.9 °F 90% 30.29 in 3.0 mi NE 6.9 mph - N/A   Overcast
5:46 PM 60.8 °F 57.2 °F 88% 30.29 in 10.0 mi ENE 6.9 mph - N/A   Mostly Cloudy
5:56 PM 59.9 °F 55.9 °F 87% 30.27 in 10.0 mi Calm Calm - N/A   Scattered Clouds
6:56 PM 57.9 °F 55.9 °F 93% 30.29 in 10.0 mi Calm Calm - N/A   Clear
7:56 PM 54.0 °F 54.0 °F 100% 30.29 in 8.0 mi Calm Calm - N/A   Clear
9:49 PM 53.6 °F 53.6 °F 100% 30.31 in 1.5 mi Calm Calm - N/A   Clear
9:56 PM 52.9 °F 52.9 °F 100% 30.30 in 1.2 mi Calm Calm - N/A   Clear
9:59 PM 53.6 °F 53.6 °F 100% 30.31 in 2.0 mi Calm Calm - N/A   Clear
10:06 PM 53.6 °F 53.6 °F 100% 30.31 in 1.0 mi Calm Calm - N/A   Clear
10:08 PM 53.6 °F 53.6 °F 100% 30.31 in 0.5 mi Calm Calm - N/A Fog Fog
10:15 PM 53.6 °F 53.6 °F 100% 30.31 in 1.0 mi Calm Calm - N/A   Clear
10:17 PM 53.6 °F 53.6 °F 100% 30.31 in 2.5 mi Calm Calm - N/A   Clear
10:24 PM 53.6 °F 53.6 °F 100% 30.31 in 6.0 mi Calm Calm - N/A   Clear
10:56 PM 52.0 °F 52.0 °F 100% 30.30 in 1.8 mi Calm Calm - N/A   Clear
11:08 PM 51.8 °F 51.8 °F 100% 30.31 in 0.2 mi Calm Calm - N/A Fog Fog
11:15 PM 51.8 °F 51.8 °F 100% 30.31 in 0.8 mi Calm Calm - N/A   Clear
11:29 PM 51.8 °F 51.8 °F 100% 30.30 in 0.5 mi Calm Calm - N/A Fog Fog
11:42 PM 51.8 °F 51.8 °F 100% 30.30 in 0.5 mi Calm Calm - N/A Fog Fog
11:49 PM 51.8 °F 51.8 °F 100% 30.30 in 1.0 mi Calm Calm - N/A   Mostly Cloudy
11:56 PM 52.0 °F 52.0 °F 100% 30.28 in 1.8 mi Calm Calm - N/A   Mostly Cloudy